Weather History for St. Francis, KS

Change the Weather History Date:

Monday, April 21, 2014

  Actual Average Record
Temperature  
Mean Temperature 59 °F -  
Max Temperature 72 °F 66 °F 72 °F (2014)
Min Temperature 46 °F 36 °F 35 °F (2013)
Degree Days  
Heating Degree Days 6    
Growing Degree Days 9 (Base 50)    
Moisture  
Dew Point 27 °F    
Average Humidity 39    
Maximum Humidity 86    
Minimum Humidity 11    
Precipitation  
Precipitation 0.00 in - - ()
Sea Level Pressure  
Sea Level Pressure 30.15 in    
Wind  
Wind Speed 9 mph (NE)    
Max Wind Speed 16 mph    
Max Gust Speed 22 mph    
Visibility 10 miles    
Events      
Averages and records for this station are not official NWS values.
T = Trace of Precipitation, MM = Missing Value Source: NWS Daily Summary

Daily Weather History Graph

Daily Weather History Graph

Search for Another Location

Airport:

Trip Planner

Search our weather history database for the weather conditions in past years. The results will help you decide how hot, cold, wet, or windy it might be!

Date:

Astronomy

Apr. 21, 2014 Rise Set
Actual Time 7:00 AM CDT 8:31 PM CDT
Civil Twilight 6:32 AM CDT 8:59 PM CDT
Nautical Twilight 5:58 AM CDT 9:34 PM CDT
Astronomical Twilight 5:22 AM CDT 10:10 PM CDT
Moon 2:02 AM CDT (4/21) 12:30 PM CDT (4/21)
Length of Visible Light 14h 27m
Length of Day
13h 30m
Waning Gibbous, 57% of the Moon is Illuminated
Apr 21
Waning Gibbous
Apr 22
Last Quarter
Apr 29
New
May 6
First Quarter
May 14
Full

Hourly Weather History & Observations

Time (CDT) Temp. Windchill Dew Point Humidity Pressure Visibility Wind Dir Wind Speed Gust Speed Precip Events Conditions
12:15 AM 50.9 °F - 44.8 °F 80% 29.99 in 10.0 mi WSW 6.9 mph - N/A   Clear
12:35 AM 50.5 °F - 44.4 °F 80% 29.99 in 10.0 mi SSW 6.9 mph - N/A   Clear
12:55 AM 50.7 °F - 44.8 °F 80% 30.00 in 10.0 mi WSW 5.8 mph - N/A   Clear
1:15 AM 48.7 °F - 43.3 °F 82% 30.00 in 10.0 mi WSW 6.9 mph - N/A   Clear
1:35 AM 48.6 °F - 43.0 °F 81% 30.01 in 10.0 mi Calm Calm - N/A   Clear
1:55 AM 47.8 °F - 42.8 °F 83% 30.01 in 10.0 mi SW 8.1 mph - N/A   Clear
2:15 AM 46.8 °F - 42.8 °F 86% 30.02 in 10.0 mi WSW 6.9 mph - N/A   Clear
2:35 AM 46.9 °F - 42.1 °F 83% 30.03 in 10.0 mi West 9.2 mph - N/A   Clear
2:55 AM 46.0 °F 43.9 °F 41.2 °F 83% 30.04 in 10.0 mi WNW 4.6 mph - N/A   Clear
3:15 AM 47.5 °F - 42.3 °F 82% 30.05 in 10.0 mi NNW 5.8 mph - N/A   Clear
3:35 AM 48.7 °F - 41.9 °F 77% 30.05 in 10.0 mi NNW 6.9 mph - N/A   Clear
3:55 AM 48.6 °F - 41.4 °F 76% 30.07 in 10.0 mi North 8.1 mph - N/A   Clear
4:15 AM 49.3 °F - 40.8 °F 73% 30.07 in 10.0 mi North 10.4 mph - N/A   Clear
4:35 AM 49.3 °F - 39.6 °F 69% 30.08 in 10.0 mi North 10.4 mph - N/A   Clear
4:55 AM 50.0 °F - 37.9 °F 63% 30.08 in 10.0 mi North 12.7 mph - N/A   Clear
5:15 AM 49.6 °F - 36.1 °F 60% 30.10 in 10.0 mi North 11.5 mph - N/A   Clear
5:35 AM 49.1 °F - 34.7 °F 58% 30.12 in 10.0 mi North 10.4 mph - N/A   Clear
5:55 AM 48.6 °F - 34.0 °F 57% 30.12 in 10.0 mi North 12.7 mph - N/A   Clear
6:15 AM 48.4 °F - 32.9 °F 55% 30.13 in 10.0 mi North 12.7 mph 18.4 mph N/A   Clear
6:35 AM 48.2 °F - 32.0 °F 54% 30.13 in 10.0 mi North 13.8 mph - N/A   Clear
6:55 AM 47.5 °F - 30.9 °F 53% 30.14 in 10.0 mi North 11.5 mph - N/A   Clear
7:15 AM 47.7 °F - 30.0 °F 50% 30.15 in 10.0 mi North 15.0 mph - N/A   Clear
7:35 AM 48.2 °F - 29.3 °F 48% 30.17 in 10.0 mi NNW 15.0 mph - N/A   Clear
7:55 AM 49.3 °F - 28.2 °F 44% 30.18 in 10.0 mi North 12.7 mph - N/A   Clear
8:15 AM 50.0 °F - 28.2 °F 43% 30.19 in 10.0 mi North 11.5 mph - N/A   Clear
8:35 AM 51.4 °F - 27.3 °F 39% 30.20 in 10.0 mi North 10.4 mph 17.3 mph N/A   Clear
8:55 AM 52.7 °F - 25.9 °F 35% 30.21 in 10.0 mi North 12.7 mph 18.4 mph N/A   Clear
9:15 AM 54.0 °F - 25.0 °F 33% 30.21 in 10.0 mi NNE 15.0 mph - N/A   Clear
9:35 AM 55.2 °F - 24.4 °F 30% 30.22 in 10.0 mi NNE 16.1 mph - N/A   Clear
9:55 AM 56.1 °F - 24.1 °F 29% 30.23 in 10.0 mi NNE 12.7 mph 21.9 mph N/A   Clear
10:15 AM 58.1 °F - 23.2 °F 26% 30.23 in 10.0 mi North 11.5 mph - N/A   Clear
10:35 AM 59.0 °F - 22.1 °F 24% 30.24 in 10.0 mi North 11.5 mph 18.4 mph N/A   Clear
10:55 AM 60.8 °F - 19.6 °F 20% 30.25 in 10.0 mi NNE 13.8 mph 17.3 mph N/A   Clear
11:15 AM 61.7 °F - 19.2 °F 19% 30.25 in 10.0 mi NNE 11.5 mph - N/A   Clear
11:35 AM 63.5 °F - 18.9 °F 18% 30.25 in 10.0 mi ENE 11.5 mph - N/A   Clear
11:55 AM 63.7 °F - 18.5 °F 18% 30.25 in 10.0 mi NE 10.4 mph 18.4 mph N/A   Clear
12:15 PM 65.1 °F - 18.7 °F 17% 30.24 in 10.0 mi NE 11.5 mph 20.7 mph N/A   Clear
12:35 PM 66.6 °F - 18.9 °F 16% 30.24 in 10.0 mi NE 9.2 mph 17.3 mph N/A   Clear
12:55 PM 66.7 °F - 18.3 °F 16% 30.23 in 10.0 mi NE 9.2 mph - N/A   Clear
1:15 PM 68.2 °F - 17.2 °F 14% 30.23 in 10.0 mi NE 11.5 mph 20.7 mph N/A   Clear
1:35 PM 68.5 °F - 16.0 °F 13% 30.22 in 10.0 mi NE 13.8 mph 19.6 mph N/A   Clear
1:55 PM 69.6 °F - 14.0 °F 12% 30.21 in 10.0 mi North 12.7 mph 16.1 mph N/A   Clear
2:15 PM 69.8 °F - 15.1 °F 12% 30.21 in 10.0 mi ENE 9.2 mph - N/A   Clear
2:35 PM 69.8 °F - 14.5 °F 12% 30.20 in 10.0 mi NNE 9.2 mph - N/A   Clear
2:55 PM 70.2 °F - 14.9 °F 12% 30.20 in 10.0 mi NE 9.2 mph - N/A   Clear
3:15 PM 70.9 °F - 14.9 °F 12% 30.19 in 10.0 mi NNE 12.7 mph 16.1 mph N/A   Clear
3:35 PM 71.2 °F - 14.4 °F 11% 30.19 in 10.0 mi NNE 9.2 mph 17.3 mph N/A   Clear
3:55 PM 71.2 °F - 14.7 °F 12% 30.18 in 10.0 mi NNE 11.5 mph 16.1 mph N/A   Clear
4:15 PM 71.6 °F - 14.2 °F 11% 30.18 in 10.0 mi East 11.5 mph - N/A   Clear
4:35 PM 72.9 °F - 14.7 °F 11% 30.18 in 10.0 mi East 5.8 mph - N/A   Clear
4:55 PM 71.6 °F - 13.5 °F 11% 30.17 in 10.0 mi ESE 5.8 mph - N/A   Clear
5:15 PM 71.6 °F - 13.8 °F 11% 30.17 in 10.0 mi SE 3.5 mph - N/A   Clear
5:35 PM 71.8 °F - 14.9 °F 11% 30.16 in 10.0 mi ESE 5.8 mph - N/A   Clear
5:55 PM 71.2 °F - 14.7 °F 12% 30.15 in 10.0 mi ESE 4.6 mph - N/A   Clear
6:15 PM 71.2 °F - 14.5 °F 11% 30.15 in 10.0 mi ESE 8.1 mph - N/A   Clear
6:35 PM 70.0 °F - 13.8 °F 12% 30.15 in 10.0 mi East 4.6 mph - N/A   Clear
6:55 PM 69.6 °F - 15.8 °F 13% 30.15 in 10.0 mi East 5.8 mph - N/A   Clear
7:15 PM 69.1 °F - 17.4 °F 14% 30.14 in 10.0 mi ESE 5.8 mph - N/A   Clear
7:35 PM 68.4 °F - 18.7 °F 15% 30.14 in 10.0 mi ESE 6.9 mph - N/A   Clear
7:55 PM 65.8 °F - 21.4 °F 18% 30.14 in 10.0 mi ESE 5.8 mph - N/A   Clear
8:15 PM 61.3 °F - 24.4 °F 24% 30.14 in 10.0 mi ESE 6.9 mph - N/A   Clear
8:35 PM 58.1 °F - 25.5 °F 29% 30.15 in 10.0 mi ESE 5.8 mph - N/A   Clear
8:55 PM 53.8 °F - 28.9 °F 39% 30.15 in 7.0 mi SSE 9.2 mph - N/A   Clear
9:15 PM 51.1 °F - 29.5 °F 43% 30.15 in 10.0 mi SE 10.4 mph - N/A   Clear
9:35 PM 50.4 °F - 29.5 °F 45% 30.17 in 10.0 mi SE 11.5 mph - N/A   Clear
9:55 PM 48.7 °F - 29.3 °F 47% 30.17 in 10.0 mi SE 9.2 mph - N/A   Clear
10:15 PM 49.8 °F - 29.5 °F 46% 30.17 in 10.0 mi SE 11.5 mph - N/A   Clear
10:35 PM 50.0 °F - 28.9 °F 44% 30.17 in 10.0 mi SE 11.5 mph - N/A   Clear
10:55 PM 50.0 °F - 29.7 °F 46% 30.18 in 10.0 mi SE 11.5 mph - N/A   Clear
11:15 PM 48.4 °F - 29.3 °F 48% 30.18 in 10.0 mi SE 11.5 mph - N/A   Clear
11:55 PM 48.4 °F - 29.8 °F 49% 30.17 in 10.0 mi SE 11.5 mph - N/A   Clear